New Deal, TX

11:37 AM CST on February 13, 2016 (GMT -0600)
Lubbock International

Weather History for KLBB - April, 2014

Change the Weather History Date:

Wednesday, April 23, 2014

  Actual Average Record
Temperature  
Mean Temperature 76 °F 63 °F  
Max Temperature 90 °F 78 °F 97 °F (1989)
Min Temperature 61 °F 48 °F 30 °F (1928)
Degree Days  
Heating Degree Days 0 4  
Month to date heating degree days 142 157  
Since 1 July heating degree days 3434 3311  
Cooling Degree Days 11 2  
Month to date cooling degree days 37 31  
Year to date cooling degree days 40 38  
Growing Degree Days 26 (Base 50)    
Moisture  
Dew Point 40 °F    
Average Humidity 35    
Maximum Humidity 60    
Minimum Humidity 10    
Precipitation  
Precipitation 0.00 in 0.05 in 0.78 in (1994)
Month to date precipitation 0.57 1.01  
Year to date precipitation 0.90 3.51  
Snow  
Snow 0.00 in 0.00 in 0.00 in (2002)
Month to date snowfall T 0.2  
Since 1 July snowfall 4.2 8.2  
Snow Depth 0.00 in    
Sea Level Pressure  
Sea Level Pressure 29.65 in    
Wind  
Wind Speed 20 mph (SSW)    
Max Wind Speed 32 mph    
Max Gust Speed 41 mph    
Visibility 10 miles    
Events      
T = Trace of Precipitation, MM = Missing Value Source: NWS Daily Summary

Daily Weather History Graph

Daily Weather History Graph

Search for Another Location

Airport or City:

Trip Planner

Search our weather history database for the weather conditions in past years. The results will help you decide how hot, cold, wet, or windy it might be!

Date:

Astronomy

Apr. 23, 2014 Rise Set
Actual Time 7:07 AM CDT 8:24 PM CDT
Civil Twilight 6:41 AM CDT 8:50 PM CDT
Nautical Twilight 6:10 AM CDT 9:21 PM CDT
Astronomical Twilight 5:37 AM CDT 9:54 PM CDT
Moon 3:22 AM CDT (4/23) 2:51 PM CDT (4/23)
Length of Visible Light 14h 09m
Length of Day
13h 17m
Waning Crescent, 34% of the Moon is Illuminated
Apr 23
Waning Crescent
Apr 29
New
May 6
First Quarter
May 14
Full
May 21
Last Quarter

Hourly Weather History & Observations

Time (CDT) Temp. Dew Point Humidity Pressure Visibility Wind Dir Wind Speed Gust Speed Precip Events Conditions
12:53 AM 66.0 °F 39.0 °F 37% 29.79 in 10.0 mi SSE 19.6 mph - N/A   Clear
1:53 AM 64.9 °F 41.0 °F 42% 29.78 in 10.0 mi SSE 17.3 mph - N/A   Partly Cloudy
2:53 AM 63.0 °F 42.1 °F 46% 29.76 in 10.0 mi SSE 15.0 mph - N/A   Clear
3:53 AM 62.1 °F 44.1 °F 52% 29.74 in 10.0 mi SSE 17.3 mph - N/A   Partly Cloudy
4:53 AM 62.1 °F 46.0 °F 56% 29.74 in 10.0 mi SSE 16.1 mph - N/A   Mostly Cloudy
5:53 AM 61.0 °F 46.0 °F 58% 29.74 in 10.0 mi SSE 13.8 mph - N/A   Mostly Cloudy
6:53 AM 61.0 °F 46.9 °F 60% 29.73 in 10.0 mi SSE 15.0 mph - N/A   Mostly Cloudy
7:53 AM 62.1 °F 48.0 °F 60% 29.73 in 10.0 mi SSE 16.1 mph - N/A   Mostly Cloudy
8:53 AM 64.0 °F 50.0 °F 60% 29.73 in 10.0 mi SSE 18.4 mph - N/A   Overcast
9:53 AM 69.1 °F 53.1 °F 57% 29.72 in 10.0 mi South 23.0 mph 34.5 mph N/A   Overcast
10:53 AM 73.9 °F 55.0 °F 52% 29.71 in 10.0 mi South 28.8 mph 36.8 mph N/A   Overcast
11:53 AM 77.0 °F 53.6 °F 44% 29.82 in 7.0 mi South 24.2 mph 32.2 mph N/A   Overcast
12:53 PM 81.0 °F 52.0 °F 36% 29.65 in 9.0 mi SSW 23.0 mph 36.8 mph N/A   Mostly Cloudy
1:53 PM 84.0 °F 51.1 °F 32% 29.61 in 9.0 mi SSW 25.3 mph - N/A   Overcast
2:53 PM 87.8 °F 46.4 °F 24% 29.73 in 10.0 mi SW 20.7 mph 27.6 mph N/A   Mostly Cloudy
3:53 PM 87.1 °F 42.1 °F 21% 29.55 in 10.0 mi SSW 18.4 mph 31.1 mph N/A   Overcast
4:53 PM 89.1 °F 30.0 °F 12% 29.50 in 10.0 mi SW 29.9 mph 36.8 mph N/A   Mostly Cloudy
5:53 PM 87.1 °F 28.9 °F 12% 29.49 in 10.0 mi SW 23.0 mph 36.8 mph N/A   Overcast
6:53 PM 87.1 °F 28.0 °F 12% 29.48 in 10.0 mi SSW 29.9 mph 41.4 mph N/A   Mostly Cloudy
7:53 PM 84.0 °F 21.9 °F 10% 29.47 in 10.0 mi SSW 25.3 mph 31.1 mph N/A   Mostly Cloudy
8:53 PM 80.1 °F 21.9 °F 12% 29.50 in 10.0 mi SW 13.8 mph - N/A   Scattered Clouds
9:53 PM 78.1 °F 19.0 °F 11% 29.51 in 10.0 mi SW 17.3 mph - N/A   Clear
10:53 PM 75.0 °F 19.9 °F 13% 29.52 in 10.0 mi WSW 16.1 mph - N/A   Clear
11:53 PM 73.0 °F 19.9 °F 14% 29.53 in 10.0 mi WSW 21.9 mph - N/A   Clear